Wind_Speed
14 18 20 17 18 16 16 16 19 24 22 23 24 23 19 12 16 36 64 26 22 26 19 30 37 34 31 27 28 23 22 22 21 18 17 19 18 14 12 12 12 10 9 9
21 25 15 12 15 16 18 20 24 24 22 24 26 28 23 26 21 20 37 52 41 27 29 29 39 38 32 31 30 29 26 25 24 20 17 18 19 16 15 14 14 13 10 9
25 16 10 14 17 19 21 22 21 19 18 20 22 29 25 32 27 16 27 34 51 46 34 32 36 43 37 35 33 34 29 26 23 18 16 16 18 18 18 17 15 13 11 10
17 18 27 25 21 18 23 18 18 19 20 23 15 10 24 26 34 25 26 29 42 49 44 35 36 45 43 39 35 38 34 31 27 19 18 17 15 14 13 15 17 15 13 11
22 19 17 20 26 26 28 18 20 19 16 20 26 13 28 25 26 33 26 31 33 40 49 55 47 44 43 40 37 38 35 34 29 24 21 18 13 12 14 19 19 16 14 13
28 28 26 24 19 18 19 20 20 17 19 9 27 17 18 26 24 23 27 24 28 34 40 38 41 38 48 47 46 44 38 37 32 27 23 20 12 14 20 21 17 15 16 15
19 21 18 16 23 27 18 18 8 6 4 11 14 15 27 25 25 24 23 19 19 26 34 40 45 46 53 53 49 45 42 38 35 28 24 22 16 16 20 19 16 16 17 19
6 6 10 9 6 11 11 11 9 6 5 8 7 11 19 18 19 24 26 25 23 24 27 30 37 44 54 56 50 47 46 45 39 32 28 25 19 17 20 18 15 15 18 22
7 3 6 6 7 5 4 8 7 6 14 2 8 26 28 22 20 23 25 27 26 25 31 29 26 43 46 54 53 51 50 45 45 36 34 28 21 19 18 17 15 17 19 22
9 11 14 13 13 10 6 7 5 8 4 4 6 9 5 7 18 23 25 25 25 27 33 30 33 31 47 53 54 56 52 46 42 40 40 31 24 22 22 21 19 18 19 23
10 10 13 16 10 14 9 7 6 6 4 4 3 1 10 10 5 13 17 22 25 29 31 39 38 35 34 32 46 52 56 46 48 49 44 37 30 30 27 25 22 20 21 23
6 5 5 11 9 11 12 5 8 5 6 4 2 4 6 6 6 5 9 16 23 27 29 31 40 41 36 36 34 40 42 47 50 55 49 41 37 34 32 29 22 20 21 25
6 3 4 2 4 7 6 0 8 7 8 8 7 7 7 3 5 5 5 8 13 15 18 20 31 39 39 40 41 38 38 41 42 57 54 46 42 38 34 29 23 18 21 22
7 3 3 6 6 10 16 18 19 11 7 10 17 16 15 13 10 11 12 8 10 11 14 11 6 17 33 40 43 42 41 42 41 47 56 51 44 38 34 27 22 19 21 20
12 7 9 8 11 11 15 15 13 17 22 19 31 18 14 11 20 16 14 15 9 7 10 11 10 8 10 18 32 41 44 43 42 43 53 52 42 37 32 28 21 20 23 21
19 9 20 23 15 9 16 19 21 17 19 30 35 45 36 27 19 25 27 23 15 16 9 8 9 9 9 12 13 17 26 31 35 39 45 45 40 36 32 26 20 22 23 21
25 18 11 7 3 5 19 17 11 12 19 19 23 29 22 30 30 28 28 26 26 23 18 14 11 9 11 8 10 14 15 18 26 33 39 39 37 35 32 24 23 25 23 18
27 25 16 10 8 5 17 13 14 25 14 15 22 24 29 35 32 27 21 27 23 31 26 18 18 17 18 13 17 12 11 18 21 29 34 35 36 33 28 26 27 27 21 19
13 16 13 7 11 24 30 11 10 15 29 26 28 30 27 25 36 39 27 22 26 11 31 28 26 24 24 22 20 22 23 20 23 23 27 30 28 27 28 30 28 24 20 21
11 15 19 12 7 7 6 9 24 13 40 27 23 20 21 22 32 42 24 26 21 20 13 26 17 25 27 22 16 11 19 21 25 28 29 30 32 31 29 28 26 23 23 26
12 18 24 28 20 23 20 14 12 18 28 23 22 24 18 20 23 19 31 25 31 27 20 22 21 26 34 43 40 32 32 21 29 32 36 37 33 33 33 32 30 28 28 31
13 11 19 21 23 21 23 19 24 28 26 27 28 25 17 13 13 13 15 23 28 29 27 29 31 25 23 26 17 32 38 35 22 39 40 41 43 41 40 39 35 33 32 32
27 29 25 22 30 37 38 40 38 39 32 33 31 30 24 18 16 18 18 18 22 30 34 30 28 25 21 22 21 37 21 21 22 21 16 35 40 38 40 38 36 33 29 32
33 32 38 43 47 43 39 38 36 35 37 37 33 37 33 28 23 17 18 22 21 16 23 30 34 32 25 23 22 20 23 31 16 14 11 8 23 27 22 34 39 36 31 35
46 42 43 48 45 41 37 29 21 18 23 31 35 34 40 38 34 28 23 20 24 24 20 25 29 27 25 22 21 22 22 20 23 26 26 22 16 19 18 24 36 51 39 38
36 37 34 43 43 42 40 34 28 26 27 26 27 27 31 39 45 39 32 26 26 26 26 23 21 24 28 30 21 20 22 21 19 16 20 23 23 23 22 20 21 24 32 40
Wind_Direction
250 237 231 224 224 236 238 258 268 259 262 273 262 266 238 249 231 234 225 235 255 264 246 226 226 223 226 223 234 237 241 245 252 270 287 297 304 285 265 247 237 235 245 268
247 249 241 245 241 248 248 265 271 275 275 275 277 269 253 235 243 243 228 225 238 241 243 232 230 232 228 228 234 235 240 247 250 263 279 292 292 279 260 242 233 233 243 264
248 245 237 248 246 249 252 260 272 283 288 271 279 273 256 237 240 245 231 241 224 233 229 232 233 235 235 229 230 236 239 246 246 256 271 289 292 279 272 253 235 233 245 262
257 255 254 256 257 257 263 265 279 284 286 281 289 285 264 245 238 239 219 227 225 227 227 240 244 235 235 231 233 237 240 247 245 251 261 281 298 279 275 245 228 235 246 259
255 263 270 264 264 259 265 274 279 281 278 289 277 259 270 261 251 235 235 229 234 236 233 240 241 237 232 231 235 237 240 244 242 246 257 265 302 266 239 230 237 242 250 258
259 262 264 274 277 271 272 267 271 269 279 260 269 254 275 267 254 248 247 243 245 245 234 238 238 234 233 228 232 234 238 245 244 248 252 258 274 253 236 245 252 251 256 263
244 250 257 264 265 270 273 257 256 274 232 249 272 262 267 270 256 256 261 260 248 250 245 249 246 235 227 228 232 236 239 240 241 243 247 249 256 251 235 241 248 255 260 264
314 224 234 291 288 274 258 247 223 228 209 259 225 238 266 272 262 252 258 256 247 244 239 248 240 236 231 231 235 239 241 243 240 241 242 240 245 242 228 232 238 252 261 267
317 268 257 322 344 357 228 211 230 267 271 245 240 266 271 271 250 242 247 252 249 240 245 243 243 232 230 235 238 240 242 243 244 243 239 233 233 224 220 224 232 243 255 263
275 285 279 269 293 277 274 276 223 210 208 233 242 247 311 244 229 236 239 241 247 246 246 248 242 241 235 235 239 241 243 246 248 246 241 234 227 222 222 222 231 248 259 265
293 273 265 274 287 282 285 238 214 224 233 196 214 186 53 38 267 255 252 253 261 263 260 252 250 242 241 232 242 241 243 243 247 244 241 233 225 227 230 227 233 247 267 274
310 285 292 303 281 292 245 184 201 211 199 192 250 141 122 45 32 337 255 252 259 266 266 257 247 244 235 230 228 231 232 238 242 245 238 233 228 229 234 234 230 246 270 272
333 295 331 223 216 205 228 357 349 316 251 225 178 190 187 269 278 247 222 229 232 243 253 254 236 239 233 232 231 226 229 237 236 239 236 232 228 230 234 237 234 248 266 259
343 267 251 206 269 284 286 286 300 299 282 278 242 214 206 263 272 268 253 204 219 232 248 253 216 224 229 224 224 227 231 237 240 232 230 229 228 232 235 235 235 252 256 238
338 320 296 267 297 285 290 296 303 287 275 258 255 256 235 301 283 275 268 259 221 208 229 242 241 197 184 208 224 229 228 229 224 221 220 225 226 230 232 232 238 253 237 230
317 308 310 292 299 260 276 282 282 283 287 278 272 272 270 274 271 264 263 257 267 255 245 231 237 238 208 200 196 204 214 212 212 208 216 221 222 229 230 230 241 237 228 238
295 288 293 289 239 303 275 289 241 274 293 295 281 278 276 268 264 262 272 265 251 259 239 253 247 233 202 204 213 214 201 202 204 203 205 209 216 221 221 227 234 225 231 241
271 264 263 268 260 237 286 253 277 295 282 289 284 291 277 258 254 259 259 269 262 246 246 242 255 245 236 204 218 237 237 218 204 203 205 206 206 206 212 213 217 224 235 252
259 247 231 233 221 280 284 265 290 291 294 291 281 294 291 277 260 250 235 252 261 270 231 230 245 246 233 225 201 199 205 210 207 194 196 194 195 199 198 210 220 226 245 261
253 242 232 227 241 241 274 306 306 279 275 298 285 277 279 269 259 251 238 233 252 255 251 235 235 245 232 212 185 198 191 211 196 190 187 187 192 199 205 215 224 240 254 267
237 239 240 246 245 270 277 297 273 230 273 295 290 288 265 274 272 267 242 221 231 237 246 257 257 239 254 251 260 262 257 214 207 197 190 196 200 208 214 223 232 243 254 262
248 252 252 249 244 268 293 271 253 285 282 284 280 271 238 250 249 248 232 222 228 235 242 247 257 258 265 257 219 211 219 222 198 209 210 205 211 218 224 229 232 236 246 257
258 270 267 254 258 279 278 280 283 285 282 275 269 257 244 231 232 237 227 222 234 228 226 233 244 252 246 263 253 242 217 176 196 204 218 205 210 205 216 225 231 240 260 278
281 283 265 276 286 287 285 280 277 272 278 269 261 246 240 237 228 228 232 217 230 243 233 234 237 240 233 235 242 239 256 247 209 206 205 259 237 238 239 229 232 241 269 293
292 287 289 287 300 301 297 297 284 265 264 259 257 246 240 240 236 238 238 239 229 228 243 226 222 225 223 221 229 246 259 268 271 267 264 256 248 257 255 256 259 247 254 285
311 305 288 290 302 293 290 293 277 263 257 250 255 254 246 241 241 244 255 243 232 229 231 236 221 226 234 240 248 247 246 246 246 248 244 249 250 251 258 263 276 265 256 267
Height
3101 3100 3098 3101 3104 3106 3107 3107 3107 3109 3112 3112 3112 3113 3118 3121 3123 3124 3127 3136 3136 3140 3144 3148 3152 3156 3160 3165 3166 3170 3171 3174 3176 3179 3181 3181 3181 3181 3182 3182 3184 3185 3187 3187
3098 3095 3099 3101 3102 3103 3104 3104 3104 3106 3108 3108 3107 3106 3110 3112 3114 3116 3120 3127 3131 3135 3138 3141 3147 3151 3155 3159 3163 3166 3170 3170 3173 3176 3178 3178 3177 3178 3179 3180 3182 3183 3185 3185
3092 3096 3097 3097 3098 3099 3100 3101 3103 3104 3103 3102 3102 3097 3102 3104 3107 3110 3113 3117 3122 3127 3131 3135 3138 3142 3148 3152 3154 3156 3163 3165 3169 3173 3175 3175 3174 3175 3176 3178 3180 3181 3182 3183
3088 3091 3093 3093 3094 3097 3096 3100 3101 3101 3100 3097 3099 3093 3093 3096 3100 3103 3106 3109 3114 3118 3123 3125 3131 3134 3140 3145 3148 3151 3156 3160 3164 3168 3171 3172 3171 3172 3174 3177 3177 3178 3180 3181
3085 3086 3087 3088 3090 3093 3091 3096 3096 3096 3095 3094 3093 3094 3083 3090 3092 3096 3099 3103 3107 3109 3114 3117 3122 3126 3132 3139 3142 3146 3150 3154 3159 3163 3166 3168 3167 3168 3171 3173 3174 3175 3177 3178
3080 3082 3083 3084 3086 3086 3089 3090 3090 3090 3091 3088 3086 3089 3081 3083 3087 3091 3095 3098 3100 3102 3106 3110 3116 3120 3125 3131 3135 3140 3144 3148 3153 3158 3161 3163 3164 3166 3168 3170 3172 3173 3174 3175
3074 3076 3078 3077 3078 3080 3082 3084 3084 3087 3087 3079 3082 3082 3076 3080 3083 3086 3089 3092 3095 3096 3099 3103 3107 3109 3114 3120 3127 3132 3137 3141 3146 3151 3154 3157 3160 3162 3165 3167 3169 3169 3170 3171
3071 3073 3073 3071 3072 3074 3076 3078 3079 3082 3082 3074 3077 3073 3071 3076 3079 3079 3080 3083 3087 3089 3090 3092 3095 3100 3105 3111 3118 3124 3129 3134 3139 3143 3148 3152 3155 3158 3160 3163 3164 3166 3167 3167
3071 3070 3070 3070 3070 3071 3071 3072 3073 3073 3072 3072 3071 3068 3068 3070 3072 3072 3074 3076 3078 3081 3082 3083 3085 3089 3095 3102 3106 3113 3120 3125 3130 3136 3141 3146 3150 3153 3157 3159 3160 3161 3162 3162
3066 3067 3066 3067 3067 3067 3067 3069 3068 3067 3070 3071 3065 3063 3062 3063 3065 3066 3068 3069 3071 3072 3075 3076 3077 3080 3084 3091 3097 3104 3111 3116 3123 3128 3134 3140 3144 3148 3151 3153 3154 3155 3156 3157
3063 3063 3063 3063 3061 3062 3063 3062 3064 3064 3065 3065 3064 3063 3063 3061 3061 3061 3061 3063 3064 3065 3066 3067 3069 3072 3075 3081 3087 3093 3101 3107 3112 3119 3126 3133 3138 3142 3145 3146 3148 3150 3151 3151
3059 3058 3058 3060 3057 3056 3056 3056 3057 3057 3061 3060 3061 3062 3058 3057 3057 3058 3057 3057 3057 3057 3056 3056 3059 3064 3067 3071 3076 3083 3090 3095 3102 3110 3118 3126 3131 3135 3138 3140 3142 3144 3144 3144
3057 3056 3056 3055 3057 3056 3055 3054 3055 3057 3055 3054 3055 3056 3052 3052 3053 3054 3053 3053 3053 3052 3051 3048 3049 3052 3058 3063 3069 3074 3080 3085 3091 3100 3109 3118 3123 3128 3131 3133 3136 3137 3138 3137
3056 3055 3056 3056 3055 3055 3053 3051 3052 3054 3056 3051 3046 3045 3047 3049 3048 3049 3051 3048 3048 3048 3047 3046 3045 3044 3047 3052 3057 3063 3069 3075 3081 3088 3099 3109 3116 3121 3124 3127 3129 3131 3131 3131
3053 3052 3051 3050 3051 3049 3047 3046 3047 3047 3048 3050 3041 3041 3042 3043 3044 3043 3045 3046 3043 3043 3044 3044 3044 3042 3043 3045 3048 3052 3057 3062 3068 3076 3087 3100 3109 3113 3117 3120 3122 3123 3124 3125
3049 3047 3046 3043 3044 3044 3043 3041 3041 3041 3040 3036 3036 3031 3038 3041 3041 3040 3039 3042 3041 3042 3040 3041 3043 3043 3042 3043 3044 3046 3049 3052 3059 3066 3079 3092 3098 3104 3109 3113 3115 3116 3118 3120
3045 3044 3044 3040 3041 3042 3038 3031 3031 3033 3032 3030 3028 3027 3030 3031 3033 3035 3035 3036 3037 3037 3039 3040 3040 3042 3041 3042 3043 3045 3048 3051 3055 3062 3071 3081 3088 3095 3102 3106 3108 3111 3113 3115
3038 3040 3043 3039 3041 3039 3023 3023 3026 3026 3025 3025 3021 3021 3022 3021 3022 3025 3030 3030 3031 3032 3035 3035 3037 3039 3040 3041 3043 3045 3048 3051 3054 3060 3066 3074 3082 3089 3094 3098 3103 3106 3109 3110
3033 3034 3036 3035 3031 3021 3015 3019 3022 3021 3017 3015 3013 3014 3014 3014 3013 3013 3021 3023 3025 3025 3027 3027 3032 3033 3036 3041 3041 3044 3047 3052 3055 3060 3065 3071 3077 3084 3088 3092 3097 3101 3101 3102
3031 3030 3032 3029 3027 3020 3010 3013 3014 3014 2999 3004 3005 3005 3005 3006 3002 3001 3013 3017 3018 3020 3022 3022 3025 3028 3031 3034 3038 3043 3042 3051 3052 3056 3061 3065 3071 3078 3082 3087 3089 3092 3093 3093
3027 3026 3024 3022 3019 3006 3004 3008 3007 3007 3000 2999 3000 2998 2998 2996 2995 2998 3002 3006 3009 3012 3015 3017 3020 3023 3024 3024 3030 3035 3041 3042 3048 3054 3054 3060 3067 3073 3076 3079 3082 3083 3084 3084
3022 3021 3017 3015 3012 3003 2998 2999 2999 2997 2994 2992 2993 2992 2990 2991 2992 2992 2994 2997 3001 3004 3008 3012 3016 3019 3021 3021 3018 3024 3029 3032 3037 3042 3048 3049 3057 3063 3067 3070 3071 3072 3072 3073
3013 3009 3006 3004 2994 2993 2990 2988 2987 2984 2982 2983 2984 2986 2985 2984 2985 2987 2988 2990 2992 2996 3000 3004 3008 3011 3015 3014 3016 3022 3024 3024 3027 3033 3035 3043 3050 3053 3056 3059 3062 3064 3064 3065
2999 3000 2992 2988 2979 2978 2978 2976 2975 2974 2972 2971 2971 2974 2976 2977 2978 2981 2982 2984 2986 2988 2991 2996 3001 3006 3010 3012 3013 3018 3020 3021 3022 3028 3032 3038 3041 3040 3045 3052 3053 3052 3054 3054
2990 2987 2979 2970 2965 2965 2963 2963 2963 2963 2962 2960 2960 2962 2965 2968 2971 2974 2977 2979 2981 2983 2986 2990 2994 3000 3003 3005 3009 3011 3013 3016 3020 3020 3026 3033 3038 3044 3043 3044 3045 3045 3044 3046
2979 2973 2970 2960 2960 2956 2950 2952 2952 2952 2952 2953 2952 2953 2955 2957 2960 2966 2970 2974 2976 2978 2981 2983 2987 2992 2997 3000 3003 3006 3009 3013 3016 3017 3021 3027 3030 3032 3033 3035 3034 3035 3037 3041